Content
SEND FEEDBACK

Daily
Averages
Monthly
Summary
United States of America

BUFFALO, OKLAHOMA


Home > North America > United States > Oklahoma
Elevation: 552 meters     Latitude: 36 50N     Longitude: 099 37W

WEATHER
 
SELECT A DAY
Number of Records: 54,839;   Date Range: 9/1/12 - 12/20/14
 
SHARE

PRINT THIS DATA

[ ← Previous Day ]
WEATHER ALMANAC - 23 JANUARY, 2013
[ Next Day → ]
[ °F ]   °C
Weather ElementAverageHighLow
Temperature6.3 °C20 °C (3:15 pm)-3 °C (5:35 am)
Dewpoint-1.7 °C1 °C (11:55 am)-5 °C (1:15 am)
Humidity61 %86 % (5:35 am)26 % (3:15 pm)
Barometer1022 hPa1024.4 hPa (11:55 pm)1019.3 hPa (2:55 pm)
Wind Speed10.3 km/h22.2 km/h (11:55 pm)
Weather ElementAverage
Visibility16.1 km
Wind DirectionESE (129.2 °)

Weather ElementTotal
Precipitation---
Heating Degree Days9.8 (Base 18.3)
Averaged from 63 records on 23 January, 2013
WEATHER CONDITIONS BREAKOUT
WIND DIRECTION BREAKOUT
WEATHER BY HOUR - 23 JANUARY, 2013
[ °F ]   °C
Local TimeTemperatureDewpointHumidityBarometerVisibilityWind DirectionWind SpeedGust SpeedPrecipitationEventsConditions
12:35 AM1 °C-4 °C70 %1023.7 hPa16.1 kmEast (80°)11.1 km/hClear
12:55 AM1 °C-4 °C70 %1023.4 hPa16.1 kmEast (90°)7.4 km/hClear
1:15 AM1 °C-5 °C65 %1023 hPa16.1 kmEast (100°)7.4 km/hClear
1:35 AM0 °C-4 °C75 %1022.7 hPa16.1 kmCalmClear
1:55 AM0 °C-4 °C75 %1022.7 hPa16.1 kmCalmClear
2:15 AM0 °C-4 °C75 %1022.7 hPa16.1 kmCalmClear
2:55 AM-1 °C-4 °C80 %1022.7 hPa16.1 kmNNW (340°)7.4 km/hClear
3:15 AM-2 °C-5 °C80 %1022.7 hPa16.1 kmCalmClear
3:55 AM-1 °C-5 °C75 %1022.4 hPa16.1 kmCalmClear
4:15 AM-1 °C-4 °C80 %1022 hPa16.1 kmCalmClear
4:35 AM-2 °C-5 °C80 %1022.4 hPa16.1 kmCalmClear
4:55 AM-2 °C-5 °C80 %1022.4 hPa16.1 kmCalmClear
5:15 AM-2 °C-5 °C80 %1022.4 hPa16.1 kmCalmClear
5:35 AM-3 °C-5 °C86 %1022.4 hPa16.1 kmSW (230°)7.4 km/hClear
5:55 AM-2 °C-5 °C80 %1022.4 hPa16.1 kmSSW (210°)11.1 km/hClear
6:15 AM-3 °C-5 °C86 %1022.4 hPa16.1 kmSW (230°)13 km/hClear
6:35 AM-3 °C-5 °C86 %1022.7 hPa16.1 kmWSW (240°)13 km/hClear
6:55 AM-3 °C-5 °C86 %1022.7 hPa16.1 kmSW (230°)13 km/hClear
7:15 AM-3 °C-5 °C86 %1022.7 hPa16.1 kmSW (230°)14.8 km/hClear
7:55 AM-3 °C-5 °C86 %1022.4 hPa16.1 kmSW (220°)14.8 km/hClear
8:15 AM-2 °C-5 °C80 %1022.7 hPa16.1 kmWSW (240°)7.4 km/hClear
8:35 AM-1 °C-4 °C80 %1023 hPa16.1 kmSW (220°)9.3 km/hClear
8:55 AM0 °C-3 °C80 %1023 hPa16.1 kmSW (230°)9.3 km/hClear
9:35 AM2 °C-2 °C75 %1023 hPa16.1 kmSW (220°)7.4 km/hClear
9:55 AM3 °C-2 °C70 %1023 hPa16.1 kmSW (220°)9.3 km/hClear
10:15 AM5 °C-1 °C65 %1023.4 hPa16.1 kmSW (220°)9.3 km/hClear
10:35 AM7 °C-1 °C57 %1023.7 hPa16.1 kmWSW (250°)13 km/hClear
10:55 AM7 °C0 °C61 %1023.4 hPa16.1 kmWSW (240°)11.1 km/hClear
11:15 AM9 °C0 °C54 %1023 hPa16.1 kmWSW (240°)9.3 km/hClear
11:55 AM12 °C1 °C47 %1022.7 hPa16.1 kmSW (230°)11.1 km/hClear
12:15 PM13 °C1 °C44 %1022 hPa16.1 kmSW (230°)11.1 km/hClear
12:35 PM13 °C1 °C44 %1021.7 hPa16.1 kmSW (230°)11.1 km/hClear
12:55 PM15 °C0 °C36 %1021.3 hPa16.1 kmSW (230°)16.7 km/hClear
1:15 PM17 °C0 °C32 %1021 hPa16.1 kmWSW (240°)14.8 km/hClear
1:55 PM18 °C0 °C30 %1020.3 hPa16.1 kmSW (220°)9.3 km/hClear
2:15 PM18 °C0 °C30 %1020 hPa16.1 kmSW (230°)9.3 km/hClear
2:35 PM19 °C0 °C28 %1019.6 hPa16.1 kmSW (230°)13 km/hClear
2:55 PM19 °C0 °C28 %1019.3 hPa16.1 kmWSW (250°)9.3 km/hClear
3:15 PM20 °C0 °C26 %1019.3 hPa16.1 kmWSW (250°)5.6 km/hClear
3:55 PM20 °C0 °C26 %1019.6 hPa16.1 kmNorth (10°)7.4 km/hClear
4:15 PM18 °C0 °C30 %1019.6 hPa16.1 kmNE (40°)5.6 km/hClear
4:35 PM18 °C0 °C30 %1019.6 hPa16.1 kmENE (60°)5.6 km/hClear
4:55 PM17 °C0 °C32 %1020 hPa16.1 kmNE (50°)9.3 km/hClear
5:15 PM16 °C0 °C34 %1020 hPa16.1 kmENE (60°)11.1 km/hClear
5:55 PM13 °C1 °C44 %1020 hPa16.1 kmEast (80°)13 km/hClear
6:15 PM12 °C1 °C47 %1020.3 hPa16.1 kmEast (80°)14.8 km/hClear
6:35 PM11 °C1 °C50 %1021 hPa16.1 kmENE (70°)11.1 km/hClear
6:55 PM10 °C1 °C54 %1021.3 hPa16.1 kmENE (70°)13 km/hClear
7:15 PM9 °C0 °C54 %1021 hPa16.1 kmEast (80°)14.8 km/hClear
7:35 PM9 °C0 °C54 %1021 hPa16.1 kmENE (70°)14.8 km/hClear
7:55 PM8 °C0 °C57 %1021.3 hPa16.1 kmNE (50°)14.8 km/hClear
8:15 PM7 °C0 °C61 %1021.7 hPa16.1 kmNE (50°)16.7 km/hClear
8:35 PM7 °C0 °C61 %1021.7 hPa16.1 kmENE (60°)14.8 km/hClear
8:55 PM7 °C0 °C61 %1022 hPa16.1 kmENE (70°)13 km/hClear
9:15 PM7 °C0 °C61 %1022 hPa16.1 kmEast (80°)14.8 km/hClear
9:35 PM6 °C0 °C66 %1022.4 hPa16.1 kmEast (80°)16.7 km/hClear
9:55 PM6 °C0 °C66 %1022.7 hPa16.1 kmEast (80°)16.7 km/hClear
10:15 PM6 °C0 °C66 %1023 hPa16.1 kmENE (70°)16.7 km/hClear
10:35 PM6 °C0 °C66 %1023 hPa16.1 kmENE (70°)16.7 km/hClear
10:55 PM6 °C0 °C66 %1023.7 hPa16.1 kmENE (70°)16.7 km/hClear
11:15 PM6 °C0 °C66 %1024 hPa16.1 kmENE (60°)16.7 km/hClear
11:35 PM5 °C0 °C70 %1024 hPa16.1 kmNE (50°)13 km/hClear
11:55 PM3 °C-1 °C75 %1024.4 hPa16.1 kmENE (60°)22.2 km/hClear
Hourly data recorded from KWWR, located 0 kilometers away from Buffalo, Oklahoma







STORIES FROM OUR PARTNERS